Theta_e
325 319 313 314 312 313 308 302 301 295 292 288 285 290 293 293 292 293 294 294 297 299 296 300 297 299 301 298 299 302 300 298 296 296 298 308 316 327 329 335 336 339 344 343 342 343 343 342 343 343 346 349 349 348 348 348 349 350 350 350 349 348 349 348 348 348 348 347 346 346 345 345 345 345 345 345 344 343 342 340 338 337 337 339 339 339 339 339 339 340 340 340 339 339 339 340 341
317 315 313 312 316 316 310 296 290 288 287 287 290 287 290 291 293 292 294 295 296 305 302 305 305 305 305 306 305 305 302 309 300 313 307 311 321 327 327 335 338 341 344 343 344 342 343 343 342 341 346 349 349 348 348 348 349 350 350 349 348 348 348 348 348 348 347 347 346 345 345 345 345 344 344 344 344 342 342 341 338 336 337 338 339 339 339 338 338 339 339 339 338 338 339 339 342
316 314 316 314 312 307 302 298 299 283 286 287 288 290 290 294 292 293 292 294 299 302 293 299 299 298 301 302 302 299 300 309 311 309 319 319 325 327 327 332 339 344 345 343 344 343 343 342 339 342 344 347 349 348 348 348 349 349 349 348 348 347 347 347 347 347 347 347 346 345 345 345 344 344 344 343 343 342 342 341 340 336 336 337 339 338 338 338 338 338 338 338 338 337 338 338 342
315 313 315 311 311 302 295 290 287 287 285 284 286 289 289 292 292 294 294 294 296 293 295 301 302 301 301 300 300 302 303 308 313 317 316 322 324 328 327 329 340 345 346 343 343 343 342 340 339 343 344 345 348 348 348 348 347 348 348 349 347 346 347 346 347 347 347 346 346 346 345 344 344 344 344 343 342 342 342 341 340 335 334 336 338 338 338 338 337 337 337 337 338 338 338 339 341
314 316 311 309 305 303 292 287 285 286 288 284 290 289 291 290 295 291 292 292 292 292 296 298 302 302 302 302 301 302 304 306 306 311 317 318 319 325 327 330 343 345 345 343 341 340 342 340 340 341 343 344 347 348 348 348 347 347 349 349 347 347 347 347 346 346 345 345 345 345 345 345 344 344 343 343 342 342 341 341 339 334 333 334 337 338 337 337 337 336 336 336 338 338 340 341 341
309 308 308 308 305 302 294 290 290 289 289 287 288 294 289 291 292 292 294 293 293 292 295 298 301 302 303 307 307 309 310 307 312 315 316 325 326 328 327 330 345 345 346 344 339 339 342 337 337 339 343 342 346 349 348 348 347 346 347 347 346 346 346 346 346 345 345 344 345 345 344 344 344 343 342 342 341 341 341 340 337 333 331 332 336 337 337 337 336 336 336 337 338 340 341 341 341
314 305 304 304 299 298 292 286 287 287 293 288 292 290 292 290 291 291 295 295 296 299 295 301 301 300 302 303 299 312 316 319 320 323 322 328 329 328 328 335 345 344 346 345 342 341 339 336 337 339 341 341 345 348 348 348 347 346 347 346 346 346 346 346 346 345 345 346 345 345 344 343 342 342 341 341 341 340 340 340 336 332 331 332 335 336 336 336 336 335 336 336 338 340 339 340 340
310 311 302 297 292 292 288 286 289 286 293 288 291 291 291 290 289 294 293 295 296 298 300 297 292 298 299 304 300 306 304 311 319 317 318 325 329 331 330 342 343 344 346 346 342 341 336 336 337 338 340 342 343 347 348 347 347 346 347 346 345 346 346 346 346 345 344 343 345 344 343 343 342 341 341 341 340 340 340 337 335 332 331 333 335 335 335 335 335 334 335 336 339 338 338 336 334
303 302 296 297 292 288 285 289 290 288 288 288 290 289 299 291 289 292 295 292 295 293 300 299 294 299 297 299 299 304 302 305 302 305 320 329 331 332 334 342 342 343 345 344 345 341 336 335 337 339 341 344 345 345 347 347 346 346 346 346 345 345 345 346 345 345 345 343 345 343 343 343 341 341 340 341 340 339 339 338 335 332 332 334 334 334 335 334 334 334 336 338 338 335 333 331 329
301 303 298 292 290 290 284 289 289 291 290 291 291 295 290 290 290 293 294 295 296 297 298 295 294 298 298 300 299 300 304 301 301 319 322 329 332 336 336 341 343 342 344 344 345 345 342 338 338 340 338 338 339 342 345 346 346 346 346 345 345 345 346 346 345 344 343 343 343 343 342 341 341 341 341 340 340 338 337 336 335 333 332 331 332 333 333 333 333 333 335 336 335 332 330 328 327
297 295 294 291 286 286 288 288 285 288 292 289 290 290 291 290 291 291 291 295 291 297 298 295 301 297 297 298 298 303 301 303 319 319 321 328 332 333 336 338 342 344 343 343 345 345 344 342 338 337 340 340 342 340 344 346 346 347 347 347 346 346 346 346 345 344 343 343 343 343 342 341 341 341 340 339 338 337 337 336 335 333 331 330 330 330 331 331 332 332 332 332 331 329 327 326 326
299 293 292 286 285 288 287 289 289 289 290 289 295 293 292 292 292 293 294 296 295 294 295 297 301 297 296 292 300 302 301 308 307 310 321 328 329 327 328 329 333 335 340 343 345 344 345 343 342 338 335 338 338 339 340 343 345 346 347 347 346 346 346 345 345 344 344 343 343 342 341 341 340 340 339 338 337 336 336 336 335 334 332 329 329 328 328 329 330 331 330 329 328 326 325 325 324
295 291 290 290 288 287 286 287 290 295 288 290 294 295 291 293 295 293 292 293 291 294 296 294 296 298 297 296 298 297 303 304 313 320 319 324 326 323 324 327 328 327 330 332 333 331 335 340 343 342 337 333 333 336 336 339 342 344 346 346 346 346 346 345 345 344 343 342 342 342 341 341 340 339 338 337 336 335 335 335 334 334 333 331 330 329 326 326 327 327 327 326 325 325 324 324 323
295 293 291 289 284 285 286 288 285 290 290 292 291 292 292 294 293 291 293 294 293 294 296 295 296 297 299 297 300 298 298 305 314 314 316 318 321 321 322 322 323 323 322 322 323 326 327 331 333 337 339 340 341 336 331 333 338 342 343 343 342 343 344 344 344 343 343 342 341 339 338 338 339 339 337 336 335 335 334 334 333 333 333 331 330 330 326 324 325 325 324 324 324 324 323 323 323
297 290 288 285 285 288 286 289 290 287 291 290 294 292 292 295 290 290 294 294 295 294 297 298 298 297 296 297 295 295 298 305 316 313 316 319 319 320 320 320 321 321 321 319 319 322 322 325 326 328 331 333 340 341 342 339 333 337 339 339 339 341 342 340 340 340 338 338 337 335 335 334 333 333 333 333 334 332 332 331 333 333 333 332 330 329 326 325 327 326 326 325 325 324 323 323 323
293 292 288 288 287 287 289 288 283 287 291 289 293 289 293 294 291 295 295 296 297 297 296 299 299 296 296 297 300 297 299 303 316 312 317 318 320 320 320 319 319 318 319 319 317 317 319 320 322 322 324 326 329 337 342 341 332 331 335 337 338 339 337 337 337 336 332 330 330 330 329 333 330 331 326 331 329 331 329 330 332 333 332 332 329 328 327 327 327 327 326 326 325 324 324 322 320
294 292 289 284 289 287 289 289 288 290 289 290 290 292 294 294 294 294 294 294 297 297 295 297 298 298 294 294 298 299 302 310 312 314 318 318 321 321 320 319 319 317 316 318 316 315 316 317 318 320 321 323 326 330 339 341 337 330 331 328 330 333 333 333 332 326 324 322 324 323 326 338 337 335 335 334 324 331 323 325 330 332 331 330 329 328 328 327 326 325 324 323 321 319 316 316 316
291 289 286 288 284 286 289 291 290 290 291 292 292 292 293 292 295 298 295 296 292 295 297 296 297 298 298 299 299 301 303 312 312 319 317 317 317 320 318 315 317 317 314 315 315 314 314 315 316 317 320 322 324 327 333 341 337 336 339 338 337 334 330 328 334 337 332 333 323 330 337 336 336 336 335 330 332 330 328 323 326 330 331 330 328 328 327 326 326 325 324 323 321 318 314 312 311
289 284 285 289 285 290 291 290 291 293 295 292 291 288 292 294 294 296 294 294 293 297 296 295 298 297 301 301 303 311 313 311 312 314 318 319 320 320 317 312 314 314 314 313 313 312 313 314 315 316 318 320 324 325 326 339 338 340 339 337 335 331 334 337 338 336 337 334 334 336 333 335 336 335 334 331 331 323 328 323 325 326 326 326 326 326 326 326 325 325 323 321 318 315 314 312 310
289 287 290 282 287 289 289 289 292 291 291 291 291 290 291 294 294 294 296 292 291 294 294 295 295 298 299 300 305 312 312 308 309 310 314 313 310 314 314 314 312 311 310 311 311 312 313 314 315 316 317 319 322 324 323 337 337 338 337 336 335 336 336 337 338 338 337 335 335 335 335 335 334 334 325 323 325 329 325 320 319 319 319 319 318 321 321 321 322 321 319 317 316 314 313 310 309
291 287 283 292 287 292 292 287 289 288 291 290 290 290 292 293 291 294 291 294 293 293 292 297 297 296 298 299 304 311 312 309 306 305 306 306 304 305 307 308 309 309 309 309 311 311 312 313 314 316 318 319 321 323 324 331 338 338 336 336 336 335 334 334 335 335 334 334 336 335 335 334 332 331 331 332 331 329 329 328 326 325 324 322 319 321 321 319 319 318 317 315 315 313 311 309 307
288 290 288 288 286 292 292 287 287 288 287 289 288 293 294 293 293 291 292 294 294 292 295 294 295 295 299 299 304 309 311 311 306 305 305 305 306 306 305 306 305 305 308 310 309 310 311 312 314 316 317 319 320 324 328 328 333 338 336 337 336 334 334 333 332 332 334 334 335 335 335 334 332 330 331 331 330 330 328 328 327 325 324 323 321 320 320 319 318 317 316 314 313 311 309 307 305
291 290 287 287 287 292 289 288 288 288 289 289 290 293 292 293 293 288 291 295 294 291 293 292 293 294 299 301 304 308 309 310 306 306 303 303 302 303 304 303 305 309 308 309 308 309 311 313 315 317 319 320 321 329 329 331 331 331 336 337 335 333 333 331 330 330 331 332 334 333 333 332 331 330 330 330 329 328 326 327 326 326 325 324 323 321 319 317 316 314 313 312 310 308 307 305 303
289 291 289 292 287 293 289 292 287 286 290 290 290 292 294 290 295 291 290 293 292 291 293 293 293 294 300 301 303 307 308 309 307 303 301 303 303 303 304 305 306 306 308 308 309 310 312 313 314 317 319 321 323 328 328 328 328 328 327 329 332 330 330 329 327 327 327 329 332 333 332 331 329 327 327 326 325 324 323 324 324 324 324 323 323 322 319 317 314 312 311 310 308 306 305 303 302
290 291 290 291 289 290 288 287 287 288 289 289 290 293 294 290 292 291 292 295 293 295 296 297 297 298 299 300 301 302 303 300 301 299 298 300 300 302 302 303 305 307 307 308 310 311 312 313 316 317 318 320 325 327 326 326 326 326 325 326 325 323 326 326 326 325 325 325 326 327 325 325 324 324 322 321 322 319 319 318 319 320 321 321 320 318 316 313 312 311 310 308 307 305 303 301 300
292 292 289 289 291 289 289 288 287 288 291 290 294 292 291 291 291 292 296 293 291 295 296 296 297 298 298 299 299 300 301 300 299 300 302 301 301 304 305 305 306 306 306 307 310 312 313 315 316 317 319 320 326 325 324 324 323 322 322 322 322 321 322 323 324 323 323 323 322 323 324 324 322 321 319 320 318 316 315 315 314 314 314 315 315 312 312 311 310 310 309 308 306 304 302 300 299
289 289 289 292 291 290 290 293 289 289 292 290 294 291 292 291 293 294 291 292 293 295 295 295 297 297 297 297 297 298 299 299 300 300 300 301 303 305 305 305 306 306 308 308 310 311 313 315 317 317 318 322 325 322 321 320 319 318 319 319 319 319 319 319 319 319 321 321 321 321 321 320 320 319 317 316 314 312 311 310 311 312 310 311 311 310 311 310 310 310 308 307 305 304 303 300 299
289 289 291 292 289 290 290 290 291 291 295 289 293 292 291 291 292 294 294 293 294 295 294 295 295 296 296 296 297 297 297 298 298 299 301 301 303 304 305 305 305 306 307 307 309 312 314 315 318 318 319 319 320 318 318 318 317 316 315 316 316 315 315 316 315 316 314 317 318 318 318 318 317 316 315 313 311 309 307 307 308 308 307 308 309 308 308 308 308 307 307 306 305 303 300 299 298
290 291 293 290 286 295 291 292 290 290 294 290 291 293 291 291 291 294 290 293 294 294 294 294 294 294 294 295 296 296 298 297 296 298 300 302 302 303 304 306 305 305 306 308 309 312 312 312 314 315 315 315 316 315 315 315 314 313 314 313 312 312 312 311 310 310 310 311 312 313 314 314 314 312 310 308 307 305 304 303 303 303 303 304 305 306 306 306 305 305 304 304 301 299 298 296 296
291 290 290 291 287 288 291 289 289 291 293 287 292 289 288 289 295 293 291 293 292 294 294 294 293 292 293 292 295 296 295 295 296 298 299 299 301 303 304 306 306 307 307 310 311 310 311 311 312 312 312 312 312 312 312 312 312 311 311 311 311 311 309 308 308 307 306 306 307 309 310 309 309 309 307 305 304 302 301 300 299 299 300 302 304 305 305 306 304 303 303 302 299 297 295 295 293
292 289 286 285 286 287 290 290 289 292 291 289 292 289 288 289 289 288 290 292 294 295 295 294 293 292 292 293 294 295 296 295 297 297 296 297 301 303 304 305 306 306 309 309 309 309 309 309 309 309 310 310 310 310 309 309 309 309 309 307 308 308 307 306 306 306 304 304 303 304 306 306 306 306 307 305 302 300 298 298 298 298 299 299 300 302 303 303 303 302 302 298 297 296 295 294 293
284 288 284 279 285 284 285 290 289 292 291 290 293 288 291 294 294 290 287 291 291 294 294 293 292 293 292 292 293 294 295 295 294 294 295 297 300 303 305 305 306 308 309 308 308 309 307 308 308 308 307 307 306 306 307 307 305 304 304 303 302 303 303 303 304 304 304 304 304 303 302 302 303 303 302 301 299 298 298 297 297 298 298 298 299 300 300 299 300 300 300 299 296 295 294 293 293
281 287 282 286 285 282 288 290 284 287 290 292 292 291 286 292 290 288 289 291 291 291 292 292 292 292 292 293 293 294 294 295 294 294 295 297 300 303 305 305 307 309 309 308 307 307 306 306 306 305 304 304 304 304 304 303 302 300 300 300 299 299 298 299 299 301 303 301 301 302 302 299 299 300 299 299 297 297 296 296 296 297 298 298 299 299 299 299 299 298 298 298 297 294 294 293 292
284 282 286 281 286 285 286 287 290 288 290 289 290 289 290 291 291 287 290 291 290 291 293 293 292 292 293 293 293 293 294 295 295 295 295 297 301 303 305 305 307 308 308 308 307 307 305 304 304 303 303 302 301 301 301 301 300 299 298 299 298 297 298 297 299 298 298 299 299 298 299 298 297 298 297 297 296 296 295 295 295 296 297 298 298 297 297 297 298 298 295 296 296 294 292 291 290
283 286 285 286 283 283 285 286 290 289 288 289 287 288 290 293 294 293 290 291 290 292 293 294 292 292 292 292 293 293 294 294 296 296 296 298 302 303 304 306 308 307 307 307 306 304 303 302 302 301 301 300 299 299 298 298 299 297 296 297 298 296 296 297 297 296 296 297 297 298 297 296 296 296 296 296 295 294 294 294 295 296 297 297 297 296 295 296 296 296 294 293 294 294 292 292 290
284 283 280 281 286 285 285 286 286 288 288 287 286 289 291 292 293 294 291 289 290 292 292 291 292 292 292 292 293 293 294 294 296 296 296 298 302 303 303 306 307 307 306 305 304 303 302 301 300 300 300 299 298 298 298 298 298 297 294 295 294 294 294 294 294 294 294 295 296 296 296 295 295 295 295 295 294 293 293 293 294 296 296 296 296 295 295 295 294 294 293 292 291 291 292 291 291
284 282 281 282 284 285 284 285 286 286 288 288 290 289 288 290 291 292 293 288 289 290 291 292 292 293 293 292 292 293 293 295 295 295 296 297 300 303 304 306 306 306 305 305 303 302 301 300 299 298 299 299 298 298 298 298 298 296 297 295 293 293 292 293 292 292 292 292 294 294 294 294 294 294 294 294 292 292 292 292 293 293 294 295 295 294 295 295 295 294 293 293 291 290 289 290 290
285 283 286 284 283 286 286 289 287 286 289 285 284 285 287 289 291 292 292 289 290 291 291 292 293 293 293 293 293 293 294 293 292 294 294 295 297 302 304 305 305 304 304 304 303 301 300 299 298 298 298 299 300 300 299 299 300 300 296 294 293 292 292 292 291 291 290 291 291 292 292 292 293 293 292 292 291 291 291 291 291 292 292 292 291 292 293 293 293 292 292 290 290 290 288 287 288
283 287 283 286 284 284 285 286 286 287 288 287 285 286 289 290 291 293 293 293 294 293 293 295 295 294 293 293 293 293 292 293 292 294 294 295 296 301 304 305 305 306 304 303 303 301 299 299 298 298 298 299 299 298 298 295 295 296 296 295 294 291 291 291 290 290 290 289 289 290 290 291 291 290 290 290 290 290 290 290 290 290 291 291 290 290 291 291 292 293 293 291 288 287 286 287 287
282 283 285 284 282 286 284 284 286 288 287 286 284 287 290 291 292 293 295 295 293 293 293 293 294 294 295 295 294 293 292 293 292 293 293 295 297 300 303 304 304 305 304 303 301 300 299 299 299 299 298 297 297 296 294 294 293 292 291 290 290 290 289 290 289 289 289 289 288 288 289 289 288 288 289 289 289 289 289 289 289 289 289 291 291 290 290 289 290 290 291 291 290 287 286 286 285
283 285 282 282 284 283 285 284 284 285 287 284 286 288 290 288 290 291 291 287 290 294 293 292 293 293 294 293 293 294 293 293 293 292 294 294 296 299 303 304 304 304 304 303 301 300 299 299 299 298 297 296 296 294 292 292 291 290 289 289 290 289 289 289 289 288 288 288 287 287 286 287 287 287 288 288 288 288 288 288 288 288 288 289 290 289 288 288 288 289 290 290 291 289 285 284 285
281 282 288 287 283 287 284 284 286 285 282 284 284 284 281 281 282 286 289 287 290 290 292 294 295 294 293 292 293 292 293 294 294 293 294 294 296 299 303 304 303 304 304 304 302 301 300 299 299 297 295 295 294 293 292 291 290 289 290 290 289 289 288 288 288 287 287 287 286 286 286 287 287 287 287 287 287 287 287 287 288 287 287 287 288 287 286 286 287 287 287 289 288 288 287 285 283
284 284 285 288 286 286 285 286 287 280 281 286 284 283 282 283 287 288 288 286 290 292 291 293 293 293 291 292 293 292 292 292 293 293 294 294 296 299 302 303 303 303 304 304 302 301 300 299 297 296 294 294 293 292 292 291 290 292 293 295 295 294 292 288 288 287 286 285 286 286 286 286 286 286 286 287 287 287 287 287 287 287 286 286 286 286 286 286 286 286 286 288 287 287 287 285 284
282 283 282 285 285 286 285 285 286 283 282 284 284 281 281 284 286 288 285 287 291 292 295 297 294 292 292 292 292 291 292 292 292 292 293 294 296 299 301 303 303 303 303 303 302 301 298 296 296 295 294 293 293 292 292 292 291 293 293 291 291 292 292 287 286 285 285 286 285 285 285 285 285 286 286 286 286 286 286 286 286 286 286 286 286 286 285 285 285 285 285 286 286 286 287 286 285
282 284 283 284 285 283 283 284 283 283 283 283 285 285 285 282 284 285 285 290 290 292 295 295 291 290 290 291 291 290 290 291 292 292 292 294 296 299 302 302 303 303 301 301 301 300 297 295 294 294 293 293 292 292 292 292 292 293 291 290 288 288 287 286 286 286 285 285 284 284 285 284 285 285 285 285 286 286 286 286 286 286 286 285 285 285 285 285 285 285 285 285 285 284 285 285 285
285 283 284 283 283 282 281 281 285 282 280 281 283 285 279 284 284 287 284 288 289 292 295 294 292 292 291 289 289 288 289 290 291 292 293 294 296 299 302 303 302 301 300 300 299 298 296 295 293 293 293 293 293 292 292 292 292 291 290 289 287 285 285 285 285 284 284 285 284 284 284 284 284 284 284 285 285 285 285 285 285 285 285 284 284 284 284 284 284 284 284 284 284 283 284 284 284
286 285 288 285 282 281 280 280 280 279 275 282 284 285 283 281 284 286 287 288 290 291 292 290 288 289 288 287 288 288 288 289 290 291 292 294 296 300 302 301 301 299 298 297 297 296 295 294 293 292 292 293 293 293 292 291 290 290 290 288 287 286 285 285 284 283 284 284 284 284 284 284 284 284 284 284 284 284 284 284 284 284 284 284 283 284 284 283 283 283 283 284 284 284 283 283 283
287 286 283 286 284 279 278 272 276 275 276 277 280 282 284 280 281 283 287 287 286 289 291 290 289 290 289 287 287 287 288 289 290 291 291 292 294 297 300 300 300 298 296 296 295 295 293 293 293 292 292 292 292 292 292 290 289 289 289 288 286 286 285 285 284 283 284 284 284 283 283 283 283 283 283 283 283 283 284 283 283 283 283 282 282 282 282 283 282 283 283 283 282 282 283 282 282
286 286 287 280 274 272 273 271 275 273 277 279 279 281 283 283 287 286 288 290 291 289 291 293 291 290 289 287 287 287 288 289 289 290 291 292 294 297 299 300 299 298 297 296 294 294 293 293 292 291 291 291 291 291 290 289 289 288 288 287 287 286 286 286 285 284 284 284 284 283 283 283 283 283 283 283 283 283 283 282 282 282 282 282 282 282 282 282 282 282 282 282 282 282 282 282 282
285 287 282 277 271 271 269 265 262 268 275 278 281 281 281 283 286 292 294 295 295 292 291 291 292 292 291 289 287 287 287 288 289 290 290 291 293 297 299 299 299 298 297 295 293 293 292 292 292 291 290 291 291 290 289 288 288 288 288 287 287 286 286 286 285 285 284 284 284 283 283 283 283 283 282 282 282 283 283 283 282 282 282 282 282 282 282 282 282 282 282 281 281 281 281 281 281
288 284 287 283 276 270 266 264 273 276 275 276 277 276 276 278 285 287 291 293 290 289 289 289 289 289 288 286 285 286 287 287 289 289 290 291 293 296 298 299 298 297 296 294 293 293 293 292 291 291 289 290 289 289 289 288 288 287 287 287 286 286 286 285 285 286 284 284 284 284 284 283 283 283 283 282 282 282 282 282 282 282 281 281 282 282 282 282 282 281 281 280 280 281 281 280 280
285 284 284 280 282 277 277 270 268 269 271 272 273 280 281 285 285 287 287 287 288 287 287 287 289 288 286 286 286 287 287 288 288 289 290 290 292 295 297 298 298 297 296 294 293 293 292 292 291 291 290 289 289 288 288 288 287 287 286 286 285 285 286 285 285 285 284 285 284 284 283 283 283 282 282 282 282 282 282 282 282 281 281 281 281 281 281 281 281 280 280 280 279 280 280 279 279
283 286 283 284 283 282 273 271 270 272 270 277 272 279 283 285 289 292 294 289 289 287 287 286 289 289 286 288 288 287 287 288 288 289 289 290 291 293 296 297 298 297 295 294 294 293 292 292 291 290 290 289 289 288 287 287 286 285 285 285 285 285 285 284 284 284 284 284 284 284 283 283 282 282 282 282 281 282 282 281 281 280 280 281 281 280 280 280 281 280 280 279 279 279 279 278 278
285 280 284 285 284 282 280 275 269 272 273 275 272 278 282 280 283 283 286 288 291 290 290 290 288 286 287 290 289 288 287 288 288 289 289 290 291 292 294 296 297 297 295 294 294 293 293 292 291 290 289 288 288 288 287 286 285 285 284 284 284 284 284 284 284 284 283 283 283 283 282 282 282 282 282 282 281 281 281 281 280 280 280 280 280 280 280 279 280 279 279 279 278 278 278 277 277
284 282 286 286 280 279 279 274 272 267 268 271 275 277 279 283 286 285 286 286 290 291 292 290 291 289 288 290 288 286 287 287 287 287 288 289 290 291 293 295 296 296 295 294 293 293 292 291 291 290 289 289 288 288 287 286 286 285 284 284 284 284 284 284 284 284 283 283 282 282 282 282 282 282 281 281 281 280 280 280 280 279 279 279 279 279 278 278 278 278 278 277 277 278 277 277 277
285 287 287 285 283 274 277 280 273 276 270 267 275 274 283 286 285 285 290 288 289 291 290 291 292 292 292 291 289 287 286 287 287 288 288 289 290 291 292 293 294 295 294 293 292 292 291 290 290 289 289 288 288 287 286 285 285 285 285 284 284 284 284 284 284 283 283 283 283 282 282 281 282 282 281 281 280 280 280 279 279 279 279 278 278 278 278 278 278 278 277 277 277 277 277 276 276
283 284 282 285 279 282 281 278 276 277 267 267 269 277 284 286 287 286 290 290 290 291 291 292 292 293 292 291 290 288 288 287 287 288 288 289 289 290 291 292 293 293 293 293 292 291 291 290 289 289 288 287 286 286 286 285 285 285 284 283 283 283 283 283 283 283 283 283 282 282 282 282 281 281 280 280 280 280 279 279 279 279 278 278 277 277 277 277 277 276 276 276 276 276 276 276 276
288 288 286 288 283 280 276 278 277 270 276 277 269 278 286 286 285 290 290 290 290 290 292 291 291 291 291 289 287 287 288 288 288 288 288 288 289 289 290 290 290 290 291 291 291 291 290 289 289 288 288 287 286 285 285 285 285 284 284 283 283 283 283 283 283 282 282 282 282 282 281 281 281 281 280 280 280 279 279 279 279 278 278 277 277 277 277 277 276 276 275 275 275 275 275 275 275
Wind_Speed
5 5 3 0 4 1 3 8 1 3 4 1 2 1 1 0 1 1 2 3 0 1 2 1 3 0 1 1 5 6 2 4 2 3 1 1 1 2 2 5 6 4 6 5 3 3 3 2 2 3 4 6 8 9 8 8 9 10 11 12 11 11 11 12 13 13 14 15 15 15 15 14 14 14 15 16 17 17 17 17 16 16 16 16 17 17 17 17 16 16 16 16 16 15 15 16 17
3 5 2 2 1 1 0 1 5 3 6 3 1 1 2 3 1 3 2 2 2 1 1 4 5 6 6 7 7 4 5 3 4 2 2 2 3 1 3 4 4 5 5 4 3 5 3 1 1 1 4 7 8 8 8 8 8 9 10 11 11 10 11 12 13 14 14 15 15 15 14 14 14 14 15 16 17 17 18 18 17 16 17 17 17 17 17 17 17 16 16 16 16 16 15 16 18
3 6 1 2 3 5 3 4 1 1 4 2 2 5 2 1 1 2 4 3 4 5 1 1 2 3 3 1 4 3 2 1 0 0 1 3 3 2 5 4 4 5 5 4 3 4 4 1 1 0 2 2 8 8 7 8 9 9 9 10 11 11 11 11 12 14 13 14 14 14 14 14 13 14 15 16 17 17 17 18 17 16 17 17 17 17 18 18 17 17 17 17 16 15 16 16 18
2 6 1 3 0 4 2 5 5 5 3 4 1 3 3 2 4 4 3 3 2 1 1 0 0 1 1 5 2 1 3 3 2 2 1 2 1 3 5 4 5 4 3 4 3 3 4 1 1 3 1 3 8 8 8 9 9 9 7 9 11 10 11 11 11 13 13 14 14 14 13 14 13 14 15 16 17 17 17 17 18 16 17 17 17 17 18 17 17 18 18 17 17 16 16 17 18
3 3 3 3 5 2 4 2 4 3 2 6 3 2 4 5 4 5 3 4 5 4 1 1 3 3 1 4 2 2 2 1 1 3 1 3 1 3 5 4 5 6 5 5 3 1 2 3 2 1 1 2 5 10 9 9 8 7 7 8 11 10 10 10 11 12 13 14 14 14 13 14 14 15 16 16 17 17 17 17 17 17 17 17 17 17 18 17 18 19 18 17 17 17 17 18 18
5 3 5 3 2 3 5 3 4 2 3 6 2 2 5 7 5 5 1 3 1 4 2 1 0 3 1 2 2 2 3 2 3 3 2 3 3 5 5 4 5 6 6 6 4 1 2 6 1 2 3 2 4 10 10 9 8 8 8 8 10 10 10 10 11 10 12 13 14 14 13 14 15 15 16 16 16 17 17 17 17 16 17 17 17 17 18 18 19 18 18 18 18 18 19 19 20
1 4 6 5 4 4 4 5 4 3 1 5 0 1 6 5 4 4 0 1 0 4 2 0 1 2 4 2 2 2 2 2 2 2 5 3 6 5 4 4 6 6 6 7 8 4 3 4 3 4 4 2 3 8 8 8 9 8 7 8 9 9 9 10 11 11 12 12 14 13 13 14 15 15 15 16 16 16 17 17 17 17 17 17 17 17 18 18 19 18 19 18 19 20 20 21 22
2 1 2 4 1 4 4 3 2 3 1 5 0 2 3 5 4 1 1 2 2 2 1 1 1 1 0 1 2 1 1 3 1 2 2 3 4 3 4 5 6 5 5 6 9 7 6 4 1 5 4 5 4 6 8 9 9 8 6 7 8 9 9 9 10 11 11 12 14 13 13 14 14 15 15 15 16 16 16 16 16 17 17 18 18 18 18 18 19 19 18 19 20 20 21 22 21
6 8 1 6 5 4 4 3 1 4 6 2 5 6 2 3 6 2 1 1 0 1 1 1 0 0 2 2 1 1 2 1 3 3 1 2 2 1 4 7 6 4 6 6 6 8 10 8 8 7 5 7 7 6 9 9 10 9 8 7 7 8 9 9 9 10 11 12 13 13 13 14 14 15 15 15 16 16 16 16 17 17 17 18 18 18 18 19 18 19 19 20 21 22 21 20 20
3 2 0 4 4 4 2 1 4 3 2 2 1 1 3 5 4 0 2 2 1 1 1 2 2 0 1 2 0 1 2 2 2 2 3 3 2 4 3 6 5 6 6 6 4 6 7 14 14 7 7 2 2 4 7 8 9 10 9 8 8 8 8 9 9 9 11 11 13 12 13 14 15 15 15 16 15 15 15 16 16 17 17 18 18 18 18 18 19 19 20 20 20 20 20 20 19
1 6 3 4 5 3 2 3 4 3 1 5 6 8 5 5 3 2 0 1 1 2 1 2 0 3 2 1 3 1 3 2 5 2 3 2 4 4 5 2 2 5 6 5 4 3 5 8 11 11 9 7 2 1 2 5 9 9 8 7 7 7 8 9 9 9 10 11 11 12 14 13 14 15 15 15 15 15 16 16 16 16 17 17 18 18 18 18 18 18 19 19 19 19 19 18 19
1 2 2 4 3 4 4 6 2 4 6 3 3 0 3 7 2 1 1 4 1 1 2 3 1 7 2 3 2 1 3 5 2 1 3 2 5 4 5 4 6 6 4 6 4 2 2 4 7 8 11 6 8 6 2 2 5 6 8 7 7 7 9 8 8 9 10 10 11 12 13 13 14 14 15 15 15 14 15 16 16 16 17 17 17 17 17 17 18 18 18 18 18 18 18 18 19
4 2 7 6 1 1 2 5 2 1 2 4 4 0 3 5 3 4 5 1 1 3 2 6 0 0 1 3 2 4 3 2 0 1 1 3 5 4 4 6 7 7 8 8 7 6 7 4 4 8 6 11 8 6 3 1 4 6 6 8 8 7 7 8 7 9 10 10 10 12 12 11 12 14 15 14 14 14 15 16 16 17 16 16 17 17 17 17 17 18 18 18 18 18 19 19 19
5 6 5 2 1 4 5 2 1 4 3 2 2 1 3 2 2 5 8 4 3 2 1 1 2 2 0 2 1 2 3 1 0 0 1 3 4 5 6 5 6 7 6 7 6 5 5 4 5 5 4 4 7 5 6 2 2 6 7 7 8 8 7 7 7 7 9 9 9 9 10 10 11 13 13 14 13 13 14 15 16 16 16 16 16 17 17 18 18 18 18 18 19 20 20 20 20
4 2 7 6 2 1 2 5 9 6 5 3 2 4 3 2 3 4 4 3 5 2 3 0 1 2 3 6 3 4 3 0 1 0 3 4 5 6 6 5 6 6 6 7 6 6 6 4 6 3 5 5 3 5 5 5 4 4 6 7 8 8 7 7 7 7 8 9 9 9 11 11 11 11 12 12 11 11 11 12 14 15 16 16 16 17 17 18 18 18 19 20 20 21 21 20 20
6 6 5 4 2 4 3 2 1 4 4 6 1 2 4 1 2 3 3 1 1 1 0 3 1 1 0 3 0 1 3 2 1 0 4 5 6 5 5 4 6 5 5 5 5 6 3 5 4 3 4 3 3 1 4 6 5 5 5 6 8 8 7 7 7 8 9 9 10 11 11 11 10 9 11 11 11 11 11 11 12 15 16 16 17 18 18 19 19 20 20 20 20 20 20 20 20
2 4 4 4 2 3 3 3 6 3 3 5 3 2 3 2 0 2 1 2 4 1 4 1 2 1 4 3 2 4 4 3 1 3 5 5 5 5 3 3 3 4 3 5 5 4 4 4 4 3 3 3 2 3 1 6 6 8 6 6 7 7 8 8 8 9 8 8 9 10 10 7 6 6 6 7 10 8 11 11 12 14 16 16 18 19 19 18 19 20 20 20 20 20 19 20 19
1 3 7 2 2 4 7 8 10 2 6 5 4 4 5 3 0 1 1 4 3 1 1 4 3 5 3 3 3 4 3 2 2 7 5 5 4 4 4 2 2 2 2 2 4 4 4 4 4 4 3 5 4 2 2 5 6 6 6 5 6 6 8 8 7 6 6 5 8 8 5 5 5 5 5 6 6 8 10 12 11 13 14 14 17 18 18 17 18 19 19 19 18 17 14 9 11
5 2 3 6 6 4 7 5 6 3 1 6 3 1 2 3 6 2 1 1 1 1 2 1 4 4 1 1 2 4 5 3 4 5 8 7 5 6 4 2 2 1 1 2 1 3 3 3 4 4 4 4 4 3 3 3 7 7 7 4 6 5 7 8 6 6 5 5 6 6 5 6 6 5 6 6 6 8 11 12 12 13 14 13 13 16 16 16 17 17 17 17 17 14 9 8 8
1 3 1 2 9 2 5 5 7 1 5 5 4 2 1 0 2 1 2 1 1 5 4 2 4 8 7 1 2 6 6 3 3 6 7 6 3 4 4 3 2 2 2 0 2 1 2 2 3 2 3 4 3 3 3 1 4 6 5 6 5 6 5 4 6 7 6 6 5 5 4 4 6 5 6 11 9 7 9 12 13 12 13 12 15 10 13 15 16 16 15 13 10 8 8 8 8
1 2 4 1 5 1 2 6 4 3 1 5 4 1 0 1 3 2 3 1 4 7 8 6 9 10 9 6 5 6 7 5 3 4 6 6 3 1 1 0 1 0 1 3 2 3 4 3 3 3 4 3 3 3 3 2 4 3 4 5 7 4 7 4 4 6 5 5 6 4 4 4 5 5 6 6 6 6 7 7 7 6 5 7 11 7 7 7 7 7 7 8 7 7 9 8 8
4 1 1 1 2 2 1 5 2 4 1 7 3 5 3 1 1 2 7 5 7 5 4 10 6 5 9 10 8 7 8 8 5 5 6 7 7 5 2 1 1 1 2 1 3 3 4 4 3 4 4 4 3 3 3 3 2 5 4 4 7 6 5 5 4 5 6 6 5 5 4 5 5 6 5 6 7 5 7 7 6 6 5 6 6 6 6 6 7 7 7 8 8 8 9 9 9
3 2 0 3 1 1 1 1 3 4 3 5 4 2 3 2 1 1 4 10 4 3 2 4 6 5 5 6 9 10 9 10 8 7 6 6 5 3 2 1 2 1 3 2 3 3 4 3 3 4 3 3 3 2 1 1 2 3 3 6 6 6 6 5 3 3 4 5 5 5 4 5 5 5 7 5 7 5 6 8 7 6 7 5 4 7 6 6 6 7 8 8 9 9 10 10 11
7 3 0 1 2 1 1 0 4 1 8 3 2 1 1 2 3 1 3 9 6 3 4 4 6 4 6 9 9 11 12 11 10 5 4 5 5 5 3 3 1 0 1 3 3 3 4 5 4 3 3 3 2 2 2 2 2 3 3 4 5 5 6 5 5 4 3 3 4 4 5 6 5 5 5 7 6 5 5 7 6 7 7 6 6 5 7 6 7 7 8 8 10 9 9 10 9
4 2 2 1 1 1 1 2 3 1 1 0 2 2 0 3 1 1 9 10 4 1 3 3 5 6 6 8 9 8 8 6 6 3 2 1 2 2 1 1 1 2 3 3 3 3 4 4 3 5 4 4 3 1 3 3 3 4 4 5 4 5 6 5 5 5 4 4 4 4 6 4 4 6 5 6 7 7 5 6 5 6 7 7 6 6 5 6 7 7 7 8 8 9 8 8 9
1 1 2 1 1 4 1 3 2 1 1 1 1 2 1 2 1 5 12 7 2 3 5 4 6 7 7 8 7 8 8 8 5 5 5 3 3 4 2 1 1 2 1 2 3 2 3 4 4 6 6 4 4 2 3 4 3 4 4 5 4 6 5 5 6 6 5 5 4 6 5 6 6 6 5 5 8 9 6 5 7 6 7 5 7 7 5 7 7 7 8 9 10 9 8 8 8
3 3 2 3 1 1 4 2 1 0 0 0 2 1 0 4 2 8 3 1 4 5 3 1 4 7 6 6 5 5 7 8 8 5 3 3 3 3 2 1 2 1 2 2 2 2 3 3 4 5 5 6 4 3 4 5 5 5 5 6 5 5 5 4 6 5 7 7 5 7 8 7 7 6 7 6 7 7 7 7 5 4 7 6 7 7 6 8 8 9 8 9 9 9 8 8 8
3 4 2 4 8 3 3 1 1 1 0 1 2 0 0 2 2 9 1 0 1 5 2 2 3 5 5 4 5 4 5 5 4 5 9 7 6 5 3 2 1 0 1 2 2 2 2 3 5 3 2 3 4 4 4 7 6 5 5 5 6 4 6 5 6 5 5 5 6 7 6 6 6 8 8 7 8 6 6 6 6 6 7 6 7 8 8 8 10 9 9 8 9 10 8 7 7
0 0 1 3 6 1 5 0 2 1 1 2 1 0 4 1 8 3 2 0 1 3 4 3 4 4 4 4 4 5 6 5 4 6 7 5 4 4 5 4 2 1 1 2 3 1 2 3 4 3 4 4 5 4 4 6 6 5 5 5 5 4 5 5 5 5 4 5 6 6 6 8 7 7 7 6 8 7 7 7 6 6 5 6 6 8 8 7 8 10 10 8 8 9 10 9 7
0 7 2 3 6 3 2 1 2 2 1 1 1 4 6 9 15 3 1 4 2 2 4 6 5 5 5 5 5 5 5 4 6 7 5 4 5 5 5 5 4 2 1 0 1 2 2 1 2 3 4 5 5 5 5 4 7 5 5 5 4 5 5 5 5 4 4 6 5 5 6 9 7 7 7 7 7 7 7 6 6 6 6 6 7 7 8 8 8 9 9 9 8 8 9 7 8
3 0 5 1 1 2 1 0 0 4 0 1 1 4 7 7 7 3 3 5 7 6 7 7 6 6 6 6 6 7 7 6 6 7 5 4 4 5 4 3 3 3 1 1 2 3 4 3 2 3 4 5 5 5 6 5 6 6 5 5 5 5 7 6 5 5 5 5 5 5 5 8 8 8 6 8 7 7 7 7 6 6 5 6 6 5 8 7 7 9 8 10 8 8 8 7 9
3 1 1 3 2 3 7 0 2 3 1 1 2 3 8 11 11 3 4 4 3 8 7 7 7 7 7 7 7 8 8 6 7 6 6 6 5 5 5 4 3 3 3 3 3 3 4 3 4 6 4 6 6 6 5 5 7 6 6 6 5 6 6 7 5 6 6 5 5 7 7 7 7 6 6 6 7 5 7 7 6 6 6 6 6 6 6 7 6 7 6 9 11 9 9 9 7
6 2 2 1 1 4 6 1 2 2 1 1 3 6 4 6 3 4 2 5 3 6 9 8 8 9 8 9 8 7 7 8 7 7 7 7 5 4 5 5 4 4 4 4 4 4 5 4 5 7 6 6 7 7 6 6 7 6 7 6 4 5 6 5 5 5 4 6 5 5 8 7 6 6 6 5 7 6 6 7 6 6 5 6 7 7 7 6 8 8 7 5 9 10 10 10 8
2 3 1 2 1 1 2 4 0 2 1 3 1 2 8 5 6 3 1 6 4 7 11 10 9 8 9 8 8 9 9 9 11 9 9 7 5 7 6 4 5 5 4 5 4 4 5 4 5 5 6 6 5 6 6 5 6 6 7 6 6 5 5 4 5 5 5 5 5 5 6 8 5 5 6 6 8 7 6 7 7 7 7 7 8 7 7 6 7 9 10 6 6 10 9 9 9
2 1 0 2 1 3 5 1 1 0 2 3 1 6 13 14 12 10 5 6 7 10 12 10 8 9 10 10 10 11 10 10 13 7 9 9 8 8 5 5 5 5 4 6 6 5 5 5 5 5 6 6 6 6 7 6 7 6 7 8 6 5 6 5 4 5 4 4 5 5 5 7 5 5 7 7 8 7 7 6 7 6 6 7 8 8 8 8 8 7 10 9 7 6 8 7 9
3 7 5 3 2 3 3 6 3 2 2 4 6 9 11 12 12 13 5 7 9 12 8 8 9 9 10 10 11 10 11 13 6 7 8 8 7 8 6 5 5 5 5 5 7 6 6 6 5 5 5 6 6 6 5 5 4 4 7 6 6 5 5 6 5 5 4 4 3 4 7 6 5 6 6 7 7 7 6 6 7 5 6 7 9 9 8 8 11 12 9 12 11 9 6 6 7
6 5 5 2 3 7 4 4 3 1 1 8 10 9 9 11 12 13 10 3 7 10 12 12 11 11 11 12 12 12 12 13 5 8 9 9 9 9 7 5 7 7 7 9 7 7 6 7 7 7 6 6 6 6 5 5 8 6 5 3 5 4 4 6 5 5 5 4 4 5 6 6 6 7 6 7 7 8 6 6 7 5 5 6 7 8 8 10 8 9 10 7 11 11 6 3 3
4 5 2 2 3 6 4 1 2 3 3 4 1 3 11 13 12 14 9 3 13 14 14 14 15 13 12 13 13 12 10 1 6 7 8 8 7 9 7 7 8 10 8 8 10 8 7 7 7 8 6 6 5 4 5 4 2 3 7 5 6 5 4 4 6 5 5 4 5 5 5 6 6 6 5 6 7 6 8 7 6 7 6 7 7 7 8 8 9 9 9 8 4 6 4 2 1
3 3 3 0 6 5 9 1 2 1 2 10 6 9 13 11 12 14 13 15 12 12 14 16 12 13 13 12 12 9 7 9 7 8 8 9 9 10 11 9 9 9 9 9 8 8 8 7 7 7 7 6 6 5 4 4 4 5 4 5 5 5 5 4 5 6 4 5 5 5 5 6 6 6 5 6 6 6 7 8 7 6 7 7 9 8 8 9 7 9 7 9 7 4 4 3 3
5 4 2 6 3 1 5 1 2 1 1 3 3 10 14 9 13 18 17 11 9 9 10 12 12 15 17 13 10 10 12 10 12 12 12 11 12 11 11 10 10 9 9 9 8 9 7 7 8 8 6 4 5 6 6 6 7 9 8 7 6 5 7 5 6 7 6 4 6 5 5 5 5 5 5 6 6 6 7 8 7 6 6 5 8 10 8 7 6 6 6 7 9 7 2 4 5
1 4 3 2 1 4 5 4 3 1 1 2 6 9 11 4 7 6 6 4 6 16 6 12 13 13 12 4 5 10 13 13 11 11 11 11 14 14 14 12 10 11 10 10 9 9 6 9 9 8 6 6 5 7 8 9 9 10 8 10 8 10 7 5 6 6 4 3 5 5 5 5 5 5 5 5 5 7 6 7 7 6 7 6 6 8 7 6 5 5 6 7 5 7 5 3 5
2 5 9 7 3 3 3 2 5 7 4 3 3 7 5 4 6 9 10 6 8 4 5 14 14 11 8 12 13 7 8 9 14 15 15 14 15 12 12 12 12 11 11 10 9 9 9 9 9 8 6 6 6 7 9 8 7 11 11 10 8 6 8 5 6 8 6 4 4 3 6 5 5 5 5 5 5 6 7 7 7 7 7 5 5 6 6 6 5 6 3 4 7 2 8 6 5
1 4 6 6 3 1 1 1 2 2 2 1 2 1 12 4 5 5 6 3 10 9 7 14 11 8 5 9 8 9 10 8 7 7 9 12 12 12 13 14 13 13 11 11 9 9 10 9 8 9 7 7 6 8 8 6 7 7 7 8 12 13 13 2 2 3 5 4 4 5 5 5 4 5 5 5 5 6 7 6 7 7 7 6 6 7 6 6 5 4 3 5 6 7 7 8 7
3 1 3 4 4 4 3 2 3 4 2 4 1 2 1 18 3 4 4 4 10 11 16 18 5 6 9 9 9 8 9 9 9 10 11 11 12 15 17 17 13 13 11 11 9 10 10 8 9 9 7 8 8 9 8 6 7 7 7 6 7 8 10 9 7 6 4 5 6 5 5 4 4 3 5 5 5 5 6 7 6 7 7 6 6 6 7 6 6 4 5 5 5 3 4 10 7
3 2 5 5 6 4 5 3 2 0 4 8 1 1 1 8 7 3 3 2 6 12 16 14 3 5 7 7 6 6 6 7 9 10 12 14 15 15 13 13 12 12 11 12 12 10 8 8 8 7 8 9 9 11 9 8 6 6 5 6 8 4 6 7 6 5 6 5 7 5 5 5 4 4 4 5 5 5 5 6 6 7 7 6 5 6 6 6 7 8 7 6 7 5 4 5 6
1 5 7 7 7 6 4 4 3 2 3 10 6 5 3 14 1 3 4 1 7 12 15 10 7 8 6 6 5 5 4 5 7 9 11 12 13 12 11 10 12 11 10 9 9 9 8 8 9 10 9 8 8 10 9 8 7 6 7 6 8 8 6 6 5 7 6 5 7 6 5 5 4 4 4 4 5 5 5 6 6 7 7 6 5 6 7 7 6 7 6 7 7 9 5 5 7
9 4 8 6 8 4 3 6 2 3 3 7 9 10 5 9 3 7 6 8 9 7 8 7 8 5 6 6 5 4 5 6 7 8 9 10 9 10 11 13 12 9 8 10 10 9 9 8 10 10 10 8 9 9 9 9 8 7 6 8 10 14 9 10 9 6 6 6 7 6 5 4 3 4 4 4 5 5 6 6 6 7 6 6 6 6 6 6 6 6 6 8 8 8 6 8 8
6 3 4 5 2 6 3 4 5 2 8 3 3 5 0 9 5 6 8 5 5 7 8 7 8 3 1 2 3 5 6 7 7 8 9 9 9 8 10 13 13 12 10 10 8 10 9 9 9 10 10 10 9 9 8 8 8 8 7 8 11 11 14 10 11 12 8 9 8 8 5 5 4 4 4 5 5 4 5 6 7 7 6 6 6 5 6 6 6 6 6 6 7 7 7 7 7
4 6 7 6 4 5 3 2 1 5 8 1 3 1 4 16 13 6 10 12 10 10 10 10 8 7 6 5 5 5 6 6 8 8 8 9 11 12 14 14 14 14 14 14 12 10 8 8 10 10 10 9 10 9 9 8 9 8 9 8 8 8 10 11 10 11 10 9 8 8 8 7 5 6 4 5 4 5 5 7 6 6 6 6 7 7 7 7 6 7 7 7 6 6 6 6 7
5 8 7 5 1 1 6 4 2 6 6 3 0 1 7 4 9 15 22 21 14 9 11 10 8 9 7 4 4 5 6 7 8 8 8 9 10 11 12 13 14 14 14 13 11 11 10 9 9 10 9 10 9 8 8 8 8 7 8 6 8 8 9 9 9 10 9 7 7 7 7 7 7 6 6 5 5 5 4 5 6 6 6 7 7 7 7 6 6 7 7 7 7 5 6 7 7
9 2 9 9 9 7 4 5 5 7 4 2 5 1 8 3 5 1 11 10 6 7 7 7 7 7 4 2 4 5 6 7 7 8 9 11 11 11 12 13 12 12 13 12 10 10 9 9 10 11 9 9 9 9 8 8 6 7 6 6 6 5 7 8 7 6 9 10 7 7 6 6 6 6 6 5 5 5 6 6 6 7 6 7 7 7 6 7 7 7 7 7 6 5 6 6 6
2 2 5 4 9 6 4 4 2 1 3 5 2 7 5 7 4 6 5 7 9 6 8 5 11 8 5 6 7 7 8 8 8 9 9 9 10 11 11 12 12 11 15 11 11 10 10 10 11 11 12 11 10 9 8 8 8 6 8 9 7 6 5 5 6 5 5 6 8 8 8 7 6 6 5 6 5 5 6 7 6 6 6 6 6 7 7 6 7 8 7 6 7 3 6 7 6
4 6 6 5 1 7 7 2 1 1 3 10 3 9 7 9 11 15 17 8 11 5 6 5 11 7 4 10 8 8 8 8 9 10 9 10 10 11 11 11 11 11 12 14 14 12 13 12 11 11 11 9 9 10 10 7 8 9 9 7 7 8 8 10 8 10 9 8 8 8 7 7 7 5 6 5 7 5 5 6 6 6 5 5 6 6 6 7 7 7 7 7 7 5 6 6 5
9 4 7 1 2 4 5 5 2 4 4 8 2 8 10 3 16 3 1 5 12 9 10 9 7 3 6 11 9 9 9 10 8 8 8 10 11 12 11 10 11 12 13 13 13 11 11 10 12 11 10 11 10 8 8 7 8 9 9 9 8 7 8 9 8 10 9 9 8 8 7 7 7 6 6 6 6 7 6 6 6 6 6 5 6 5 6 6 7 6 7 6 6 6 6 5 4
4 3 4 6 4 2 2 4 4 1 4 7 6 3 10 10 13 2 1 5 9 13 13 9 10 7 10 10 8 7 6 5 8 9 10 10 11 11 12 12 10 11 12 11 11 9 8 9 10 11 13 13 14 11 9 7 6 7 8 9 11 10 8 8 8 7 7 9 10 9 8 7 7 7 7 8 7 7 7 6 6 7 6 6 5 5 5 5 6 7 6 6 6 6 6 6 4
1 2 3 1 2 1 5 7 3 5 4 1 9 2 14 6 7 8 10 12 10 10 9 11 13 10 10 9 7 7 8 9 9 9 9 9 10 10 11 12 12 13 13 12 12 10 10 9 11 10 9 9 9 9 9 11 9 7 7 7 6 6 9 10 9 9 8 9 10 10 10 9 8 7 7 7 7 8 8 8 6 7 7 6 6 5 5 6 5 6 6 7 6 6 6 6 5
1 2 3 0 0 2 5 1 3 3 4 4 2 9 15 8 9 10 10 11 12 11 11 10 11 12 11 8 5 6 8 8 8 8 9 9 10 10 10 10 8 6 8 9 11 12 11 10 11 11 12 10 9 9 9 10 9 8 10 11 10 10 10 8 10 9 9 10 8 8 8 7 7 7 8 8 8 8 8 8 8 7 7 7 6 6 5 5 5 6 5 6 7 6 7 5 5
10 14 14 16 12 6 4 7 1 2 3 6 5 15 17 7 4 9 9 10 9 10 11 9 9 9 9 7 5 7 7 8 9 8 8 9 10 10 9 8 6 7 8 11 10 10 11 11 11 11 10 11 12 10 10 9 8 9 10 10 10 9 10 10 11 10 10 9 8 8 9 9 8 7 8 8 9 8 7 8 8 8 7 7 6 6 6 5 6 7 6 5 6 7 7 6 5
Wind_Direction
326 328 314 117 53 99 52 1 127 346 56 21 19 22 179 21 224 37 224 347 47 258 211 82 187 150 246 222 147 126 170 101 232 138 188 223 249 281 323 296 291 257 206 176 160 156 160 47 62 357 354 112 95 91 93 94 88 86 86 93 100 103 103 100 100 96 92 89 87 84 79 71 66 64 62 59 56 55 54 53 54 56 58 58 59 60 61 62 67 74 79 80 77 77 80 82 83
316 317 24 58 18 60 334 145 99 353 45 84 222 101 248 292 23 207 185 193 202 117 125 125 108 99 65 78 102 134 68 9 172 57 281 230 297 258 4 344 275 220 197 180 160 151 157 106 110 17 353 113 103 99 101 96 91 91 93 98 102 103 103 104 102 100 96 90 88 86 81 74 69 65 63 61 59 56 53 52 53 55 58 59 60 61 62 65 69 75 78 77 76 79 83 84 85
8 6 254 35 44 73 97 26 298 15 85 75 271 206 337 117 175 227 225 212 170 148 31 55 138 50 27 45 32 63 129 348 137 355 196 320 153 342 350 330 273 238 177 168 142 147 147 140 112 140 42 88 121 119 110 106 102 100 104 109 109 108 103 104 102 98 97 96 93 89 85 80 73 69 66 65 62 58 55 51 50 55 58 61 61 62 63 68 72 74 75 75 77 81 82 82 82
73 30 147 56 49 28 50 34 85 122 110 191 315 263 204 163 217 201 236 241 204 5 309 253 83 241 113 69 157 225 52 109 194 158 60 42 77 303 311 307 246 205 163 127 136 148 144 156 180 103 84 34 133 125 124 117 112 119 120 103 105 105 106 104 109 109 107 103 98 94 88 83 76 72 69 66 63 60 58 55 51 52 57 62 63 63 65 70 73 74 73 73 76 80 82 82 82
63 353 65 99 110 10 101 103 123 99 108 201 150 253 250 212 174 212 272 268 264 188 227 242 91 350 210 104 176 118 161 100 274 215 262 274 287 291 300 287 195 179 163 134 114 5 135 128 135 140 164 99 153 133 133 128 112 103 103 104 105 108 110 111 110 113 111 106 101 96 90 82 76 73 68 65 62 60 59 57 54 54 56 61 65 65 68 71 73 73 74 76 79 81 82 82 80
57 44 12 74 65 171 70 64 46 65 229 155 107 210 215 205 175 202 261 327 306 187 186 105 177 184 56 331 192 95 195 93 175 208 169 249 328 320 288 283 174 177 159 127 126 171 282 134 112 326 188 155 192 142 138 133 116 105 106 111 113 112 112 114 111 111 112 106 103 97 89 83 78 73 69 65 64 61 61 60 57 57 58 61 65 69 71 71 72 72 75 77 80 79 79 78 75
282 42 4 39 34 46 134 119 140 158 181 164 123 233 203 195 226 121 204 53 214 82 200 254 113 103 74 297 7 232 189 109 105 170 183 306 320 305 272 226 166 168 172 134 145 143 141 153 149 284 165 224 230 145 138 131 123 115 113 116 115 112 117 119 120 121 109 110 103 99 92 85 80 76 72 69 65 64 63 63 61 60 61 63 67 70 72 73 74 74 75 78 76 73 73 69 65
74 130 333 95 354 44 45 147 148 189 37 184 256 238 246 218 174 147 225 139 206 168 31 229 323 118 258 58 159 296 341 210 179 241 247 277 291 297 212 183 167 157 162 154 151 135 148 184 66 325 204 197 218 158 147 140 130 124 118 122 120 119 118 118 121 121 119 109 106 101 95 89 83 80 76 73 70 69 69 67 66 63 64 68 70 71 73 75 76 77 79 78 76 73 67 68 69
8 84 245 71 56 29 73 76 209 248 281 273 276 227 289 199 170 122 214 265 344 287 168 252 298 107 217 63 178 281 285 250 286 265 276 321 356 147 194 170 168 149 156 176 139 135 149 177 169 193 230 201 173 182 159 150 138 136 134 130 128 125 120 122 126 127 118 113 107 103 99 91 86 82 80 76 74 72 72 73 71 68 69 71 72 72 74 76 77 78 77 74 70 69 70 69 67
48 36 200 109 133 55 13 286 94 180 242 220 231 174 199 171 166 13 161 92 184 120 235 323 205 87 132 172 337 305 143 307 261 171 19 15 15 116 163 164 166 157 146 181 129 140 153 175 178 143 79 43 128 180 169 153 143 142 141 141 135 124 124 126 127 126 116 115 108 109 100 93 89 85 81 79 77 77 78 77 75 74 73 74 74 75 75 77 80 82 79 77 74 73 72 71 70
9 23 136 77 39 109 146 208 270 319 259 309 275 238 218 135 128 128 5 196 343 172 285 191 26 140 134 250 205 295 325 6 139 141 321 354 70 60 93 84 137 152 158 178 167 130 138 172 158 162 161 184 138 70 33 160 154 147 142 136 128 123 125 128 130 121 119 113 116 109 100 95 92 87 83 80 80 80 81 80 78 77 78 78 78 77 78 80 81 82 83 81 81 79 78 76 74
44 21 10 95 135 152 213 151 227 273 303 339 149 333 198 144 118 110 190 135 210 263 178 152 275 146 100 329 283 174 339 52 44 258 297 94 86 67 76 70 69 50 91 170 159 149 123 138 162 173 144 127 132 174 271 142 165 151 139 132 126 126 132 134 132 125 123 122 122 112 107 102 97 93 89 86 84 84 83 81 80 79 80 82 83 84 85 86 88 89 89 87 85 84 82 79 77
111 92 87 77 167 181 152 108 198 307 349 274 163 61 128 126 182 191 181 101 60 114 285 200 350 313 244 195 244 308 130 15 294 285 14 100 101 79 67 75 72 64 61 60 65 40 37 53 131 158 144 138 148 187 84 59 174 157 144 133 129 129 133 134 133 131 128 127 124 114 112 109 103 99 94 91 88 87 86 84 81 80 78 80 82 85 87 90 91 90 89 87 84 82 80 79 77
116 175 120 135 35 119 133 142 1 150 249 245 270 117 194 138 246 177 135 131 205 173 243 279 129 173 150 353 277 294 221 257 276 10 95 93 107 82 71 71 67 63 50 50 47 24 25 39 59 44 104 137 174 168 120 342 232 158 143 136 132 134 136 132 134 128 132 127 117 114 114 109 104 100 98 93 88 85 86 84 82 80 78 77 78 81 85 88 89 88 87 85 84 82 81 80 76
105 159 82 120 64 86 233 130 193 160 217 195 171 144 149 277 100 130 156 150 242 210 308 317 209 126 230 156 279 211 187 285 126 324 97 98 86 88 82 77 78 59 54 58 52 39 9 23 41 353 52 35 153 180 147 182 186 147 149 140 137 135 134 132 131 127 123 122 118 116 114 108 102 100 101 95 90 85 79 79 80 80 78 76 76 79 82 83 84 84 84 84 83 83 81 78 73
135 93 80 98 163 137 221 121 358 109 245 184 211 224 98 352 217 138 246 158 218 313 17 197 39 214 296 175 252 269 263 278 122 291 104 95 86 77 87 76 78 66 62 56 54 42 335 37 31 32 37 21 19 310 160 161 148 136 140 145 138 134 133 128 125 123 123 122 120 119 116 113 107 102 103 104 97 91 85 83 80 79 77 77 78 79 80 80 80 79 78 78 77 75 72 69 67
64 85 62 46 159 175 207 148 149 193 235 244 277 177 148 188 198 256 126 147 124 205 355 230 210 45 202 203 282 277 283 245 117 157 123 97 106 110 88 66 82 70 48 60 47 26 3 17 27 38 36 11 351 12 243 165 154 147 143 151 132 134 129 114 106 108 110 110 120 123 123 122 119 110 108 105 104 99 96 85 82 81 79 80 80 79 78 80 81 80 80 77 74 71 68 65 63
53 72 116 109 197 153 199 176 187 204 125 216 191 204 117 167 182 197 136 45 44 337 257 301 293 255 222 258 273 259 275 172 194 156 142 123 141 134 116 81 61 97 45 52 43 19 8 10 13 9 10 10 356 5 319 189 156 150 139 157 146 144 128 120 123 126 124 129 129 135 133 129 126 117 118 110 105 108 101 94 86 82 77 74 79 80 79 80 82 83 83 81 78 75 70 70 67
83 133 84 198 178 234 167 191 181 117 221 169 178 117 153 204 145 215 92 255 7 226 277 9 306 295 337 340 341 147 159 129 145 154 154 153 182 179 142 116 64 78 95 1 48 21 16 11 3 4 10 355 349 2 319 215 155 160 154 165 141 146 136 141 140 139 144 143 147 142 139 142 136 132 136 116 106 109 107 100 88 86 84 77 76 82 82 80 79 80 79 79 80 78 73 71 68
207 113 125 258 203 241 210 177 183 224 140 131 148 178 138 231 132 114 219 160 49 219 221 291 267 250 217 248 165 147 166 110 124 154 153 151 142 183 173 162 140 78 317 345 330 315 32 35 359 355 356 351 338 337 335 241 157 163 155 152 138 134 136 138 151 150 150 155 154 145 136 134 139 129 114 118 115 114 98 90 89 87 89 88 87 77 73 71 73 69 69 71 73 73 76 74 69
231 69 158 218 172 95 207 184 225 191 120 139 128 99 75 229 208 163 176 112 258 257 233 194 213 227 203 192 176 164 174 157 123 126 142 138 115 70 47 3 134 267 324 323 345 352 356 3 355 7 357 338 347 346 339 317 173 161 156 152 134 146 135 142 145 148 143 164 156 149 140 131 134 134 139 130 123 128 116 111 103 98 96 96 97 87 84 80 73 74 74 66 68 71 73 69 72
93 61 204 161 159 54 293 203 137 133 70 102 113 130 218 98 74 123 154 193 240 208 245 214 217 203 170 181 180 173 181 180 166 157 167 166 163 158 140 197 310 298 320 42 346 336 347 343 345 349 352 344 339 320 306 279 249 171 159 165 146 141 131 140 153 153 158 169 169 156 149 137 141 142 137 131 123 122 123 115 112 115 108 107 105 93 94 93 88 85 80 79 73 70 73 72 67
88 340 341 207 247 117 318 216 192 129 113 118 135 205 82 116 219 188 188 217 229 215 227 231 227 205 208 130 151 176 185 188 185 181 169 164 157 150 126 89 44 358 2 341 327 330 324 318 357 355 338 329 306 269 276 9 40 29 192 160 145 140 133 130 128 136 148 153 155 145 152 145 137 151 139 128 123 116 124 123 122 121 120 114 109 108 101 93 92 89 86 84 82 76 76 75 72
100 154 86 234 187 48 239 183 119 86 119 177 195 48 142 116 238 107 227 243 232 255 266 252 239 217 156 151 177 180 185 187 191 184 190 180 164 155 154 106 51 293 4 352 346 338 333 327 326 331 309 302 282 200 98 56 55 71 13 70 120 127 121 126 124 104 88 118 154 161 161 136 134 122 122 124 109 108 109 114 115 116 113 112 105 96 105 102 93 90 91 87 85 78 75 77 77
84 90 212 233 110 335 325 126 95 94 82 290 122 127 123 195 208 24 256 250 234 28 62 76 110 127 143 158 173 172 175 176 175 185 179 210 177 173 194 192 54 45 18 350 347 336 313 301 310 307 294 283 262 174 84 78 75 73 63 74 75 93 109 115 120 114 106 100 95 108 103 105 106 103 90 97 112 94 64 80 84 92 97 106 103 90 85 94 92 91 88 84 79 80 79 76 79
103 138 123 22 48 340 123 73 56 38 54 120 96 302 289 254 232 237 247 250 204 134 73 84 115 128 163 174 175 174 177 181 164 164 177 181 186 152 122 38 117 52 302 294 329 318 309 311 291 278 273 264 225 148 114 100 78 85 75 83 78 83 85 106 114 108 105 90 86 90 101 114 108 111 109 108 103 101 86 54 80 79 79 77 91 91 84 86 89 87 88 89 90 86 81 82 84
125 104 91 107 325 317 21 144 358 290 164 217 176 295 316 325 103 280 24 16 127 83 79 62 143 162 170 167 180 192 178 185 180 157 132 179 180 153 161 153 108 41 339 323 319 311 305 302 262 258 245 239 194 123 118 99 77 84 83 90 82 88 97 88 79 90 100 90 84 102 101 95 104 108 104 100 93 98 90 83 64 75 82 75 79 80 86 94 92 91 95 99 98 95 87 85 81
52 135 129 29 348 63 353 50 7 339 198 168 141 222 196 312 80 237 136 21 282 138 136 147 159 172 176 184 191 199 206 203 185 169 179 181 195 178 174 178 156 120 281 284 296 306 335 348 46 32 69 64 103 109 115 107 100 88 85 94 89 86 93 89 92 83 76 92 105 96 99 99 102 104 103 99 101 95 94 93 89 89 94 90 94 100 92 92 95 92 87 87 93 98 96 83 81
148 274 130 308 358 50 4 345 321 357 262 147 159 352 306 148 233 241 312 188 87 142 172 197 205 210 228 234 223 218 212 200 194 204 206 201 180 160 177 192 187 186 231 248 267 323 33 9 51 33 43 44 82 93 98 107 105 98 92 82 87 76 73 83 81 84 94 88 85 87 97 97 93 99 95 100 106 97 100 98 92 85 86 97 97 100 98 99 94 96 92 97 96 93 92 88 78
132 38 78 3 3 346 328 335 353 130 248 93 314 279 259 248 245 260 324 133 92 123 223 224 230 234 245 244 237 240 240 217 214 216 206 205 188 182 175 184 171 203 201 255 81 63 50 21 70 46 54 69 71 82 85 96 109 104 98 86 80 84 71 77 72 69 74 78 73 78 95 95 94 88 99 101 104 104 98 95 104 97 100 104 106 107 102 104 105 105 109 100 97 95 93 97 91
119 281 58 79 26 269 299 88 339 155 191 235 28 220 276 275 278 284 304 176 167 210 226 230 230 241 238 237 239 238 239 217 219 218 222 219 208 190 176 161 162 186 146 135 100 91 65 58 14 76 60 78 68 66 84 96 98 98 80 83 84 85 85 79 75 69 63 67 82 73 69 94 99 102 110 113 107 108 107 103 93 100 105 101 97 97 107 99 102 107 114 104 99 91 92 86 87
31 80 295 323 151 277 296 318 166 171 348 7 121 290 251 264 272 304 313 176 179 230 236 237 235 234 236 238 238 240 240 227 236 238 224 218 212 183 183 184 170 171 162 131 109 89 78 64 78 97 76 80 69 68 79 95 77 79 87 80 75 83 88 86 79 82 82 80 72 84 73 82 87 103 113 116 108 105 106 103 100 103 106 101 98 98 96 100 96 95 98 117 112 102 102 91 89
358 60 253 245 45 266 334 100 254 313 84 8 172 240 336 305 250 317 314 168 185 241 259 249 242 239 237 232 232 238 250 246 240 227 217 204 209 186 181 192 171 176 148 149 136 115 101 88 89 102 87 82 88 79 73 82 81 85 83 81 71 74 88 89 91 96 96 90 80 87 98 85 83 95 103 103 99 101 98 98 99 104 108 104 102 101 96 98 107 103 93 74 106 115 104 104 95
316 17 170 205 185 276 257 313 201 12 87 209 253 221 238 242 257 263 272 176 172 234 251 252 241 239 235 237 230 230 228 231 228 206 205 194 196 179 182 180 173 157 150 144 137 129 119 106 96 92 97 82 81 90 87 73 91 92 86 77 66 64 63 80 84 85 87 93 100 100 100 98 87 97 93 95 96 91 92 99 103 106 108 100 98 94 93 93 97 108 104 87 94 109 111 111 105
208 168 65 286 295 218 253 328 252 45 13 205 292 248 265 268 278 279 224 189 190 231 237 245 246 241 241 233 231 228 228 225 231 191 188 186 192 176 176 171 164 151 145 136 124 115 108 109 101 99 103 104 99 95 92 87 87 85 91 89 71 72 68 53 56 73 63 80 92 103 91 94 98 94 95 99 103 105 103 99 105 108 111 108 106 106 104 103 100 91 106 98 62 61 104 103 110
177 168 171 148 161 232 211 239 284 182 222 248 227 233 251 258 273 279 267 191 201 241 260 267 251 244 244 235 236 228 225 236 211 182 187 186 184 181 176 170 159 150 145 130 131 130 122 119 109 104 115 120 116 108 109 101 96 97 101 95 86 73 77 77 55 63 51 58 60 85 92 92 94 93 93 98 95 97 98 102 101 103 111 115 116 116 120 119 121 112 103 110 106 89 69 94 106
100 88 102 174 197 279 281 273 269 277 327 238 238 246 255 270 266 267 268 169 244 259 259 253 246 241 238 238 233 229 226 234 162 185 186 187 187 181 176 163 165 155 158 150 145 150 146 143 137 134 139 135 138 137 136 139 130 99 60 73 98 87 93 99 71 63 57 51 48 69 87 95 94 87 91 101 97 104 95 100 100 92 96 104 106 109 114 114 111 113 115 99 115 114 92 71 65
126 115 125 231 179 255 230 116 357 308 172 294 287 287 262 257 267 266 269 183 246 237 243 248 248 238 240 235 236 227 229 99 160 186 195 193 192 183 172 175 170 168 167 161 163 161 149 147 140 142 148 147 141 134 130 125 98 113 134 127 110 106 103 87 104 77 72 58 53 51 71 81 85 86 91 91 101 112 116 106 107 114 115 106 99 105 105 109 119 120 125 100 19 92 98 5 357
54 146 150 10 265 249 288 290 333 296 112 263 309 288 266 258 257 266 257 245 242 230 225 240 241 247 241 235 233 226 199 210 180 202 186 190 192 187 184 186 181 177 167 170 162 152 151 149 146 149 157 154 144 126 110 107 95 84 101 123 116 101 57 55 73 86 72 79 65 54 64 76 83 81 80 87 110 110 111 114 115 115 115 126 118 111 115 118 129 135 143 127 119 66 94 42 21
119 97 110 214 248 35 304 300 9 15 171 284 306 298 278 251 245 248 251 251 264 255 238 246 235 244 246 237 217 211 214 199 199 190 190 186 190 189 184 185 182 176 170 168 164 162 156 154 154 156 146 130 124 118 106 89 97 96 83 89 80 78 111 95 88 84 83 76 75 58 49 67 64 80 83 99 109 105 114 116 119 117 116 118 123 126 127 126 130 124 125 116 125 122 85 62 20
296 169 155 212 201 238 181 258 302 259 26 54 311 276 281 249 264 281 286 293 277 266 265 256 246 239 252 290 231 206 210 201 200 185 189 185 189 192 188 184 179 185 181 177 170 166 160 163 160 151 139 135 122 124 126 128 119 104 102 97 94 91 84 104 97 80 71 81 87 59 57 55 72 83 90 97 109 110 110 113 114 114 114 115 119 117 120 123 118 114 126 132 150 135 126 118 40
312 235 195 205 177 206 270 339 12 1 337 353 45 331 301 287 240 247 274 319 280 270 246 254 252 247 240 241 241 219 226 201 194 193 189 187 187 182 185 182 185 187 186 181 169 166 162 163 156 143 129 127 130 132 137 149 152 140 141 132 123 125 133 153 152 148 147 124 99 111 70 61 77 85 88 99 101 112 112 111 114 118 115 115 112 108 115 118 117 121 133 139 112 60 127 120 108
72 269 198 217 153 140 124 305 52 314 239 303 44 94 288 238 245 247 264 302 282 295 258 261 255 256 238 242 237 219 212 206 209 192 179 176 185 182 185 188 188 189 188 175 170 167 163 159 150 146 144 137 135 139 146 144 132 141 152 154 152 156 148 94 73 67 107 112 105 91 89 74 61 91 90 93 103 106 110 112 114 112 113 114 122 119 116 117 117 110 125 115 112 128 129 110 126
235 247 138 135 143 171 208 151 177 231 263 282 85 121 249 301 270 248 312 320 282 297 283 269 272 255 243 238 230 220 211 202 187 187 181 185 182 186 186 189 187 188 176 169 170 168 157 150 151 149 143 146 152 153 156 164 151 157 159 152 143 143 149 143 146 122 101 111 104 95 93 81 71 64 96 92 96 105 112 112 117 119 117 118 124 118 120 124 114 95 95 97 96 91 132 128 138
219 194 137 146 155 174 129 106 125 176 18 297 24 128 204 255 271 300 355 272 283 262 259 268 322 272 254 252 244 233 211 195 182 179 182 185 188 192 185 183 183 175 170 176 176 169 147 149 144 137 146 151 157 163 161 166 172 168 155 147 106 67 95 113 119 114 116 117 103 94 90 89 83 70 68 93 91 101 103 112 114 113 111 113 113 112 110 116 117 124 122 108 106 93 89 106 112
232 129 93 87 81 70 100 104 91 318 50 273 166 199 173 274 272 216 344 155 261 252 255 274 293 270 268 266 264 237 203 182 189 190 186 190 191 189 184 173 177 178 170 164 163 158 153 151 151 153 154 156 157 165 171 171 170 159 149 150 124 124 121 111 117 122 122 127 109 108 106 109 111 101 85 77 89 85 94 97 99 97 98 101 95 99 105 100 95 92 98 109 112 101 89 93 98
128 121 81 37 42 34 32 60 75 50 281 255 183 203 147 276 249 200 151 209 208 245 293 293 297 289 269 253 240 204 185 180 186 188 192 192 189 182 173 178 176 168 162 162 164 164 161 158 158 161 162 157 163 168 173 175 166 164 154 153 143 142 143 134 132 124 126 130 129 130 132 128 123 112 105 88 76 88 90 87 93 91 91 95 96 92 88 91 87 90 95 92 87 98 102 102 97
122 101 128 76 355 12 35 345 30 135 265 253 299 221 61 210 288 273 246 275 230 207 237 275 286 288 277 292 270 207 189 189 187 182 186 179 177 185 176 178 178 175 171 169 165 168 164 164 162 157 163 168 169 170 174 175 170 168 162 159 155 153 148 154 151 147 158 147 150 143 142 130 122 111 106 104 98 95 102 95 93 97 94 96 90 95 95 97 98 94 87 84 89 85 94 95 99
80 90 83 121 244 33 294 22 261 197 220 158 319 225 327 243 244 278 284 265 252 218 224 235 241 255 262 280 254 213 198 187 190 190 180 183 184 181 183 179 178 182 186 180 174 170 164 162 166 161 169 169 174 172 175 171 170 173 164 164 160 156 150 151 154 144 158 155 156 149 154 147 140 134 137 122 121 122 120 115 115 112 109 101 110 105 103 103 103 97 97 93 94 98 104 108 109
127 155 147 105 146 169 258 272 270 307 293 265 296 88 246 289 285 226 243 247 237 232 226 237 234 241 248 256 233 211 206 200 198 189 190 190 187 186 183 180 184 186 186 181 175 172 172 170 168 169 167 173 171 171 173 167 173 161 153 158 161 166 160 155 160 150 155 147 150 151 152 148 148 143 142 139 138 127 104 101 110 104 104 113 111 109 110 109 108 105 101 97 94 96 100 98 101
207 95 162 179 149 160 202 190 217 229 218 266 275 86 231 121 241 259 232 260 290 267 249 234 247 251 248 250 236 222 214 215 199 199 196 193 192 188 186 184 185 184 181 178 176 176 170 172 172 172 165 177 173 176 172 170 160 150 150 154 162 170 161 152 154 153 145 144 147 145 140 144 145 144 142 134 130 112 109 111 110 113 119 117 116 113 110 109 107 101 96 98 92 97 98 100 102
210 158 76 107 225 133 233 214 158 284 340 342 213 214 194 197 268 289 245 278 282 266 276 278 263 242 224 250 225 214 217 209 204 204 200 197 193 192 192 190 185 182 185 181 178 176 176 178 177 175 173 172 175 174 177 171 151 143 142 156 164 157 137 120 119 118 114 131 138 147 144 142 138 132 127 128 118 118 122 118 108 107 113 111 108 114 117 113 113 106 107 106 103 98 108 105 112
209 114 207 210 153 106 86 64 46 81 49 256 136 290 277 301 276 241 247 233 258 290 286 266 256 255 198 244 233 219 216 212 206 205 198 193 194 201 198 190 184 180 183 187 186 183 181 176 175 175 174 170 173 178 174 161 141 144 148 143 149 152 148 156 152 147 143 137 138 137 140 135 129 134 132 129 122 119 119 116 115 114 107 106 108 108 111 111 112 110 117 121 118 122 114 117 121
99 197 231 174 130 112 137 222 359 72 205 266 75 252 293 51 284 13 41 230 250 254 261 253 265 267 235 246 232 216 213 215 209 205 202 198 197 196 195 194 189 186 183 186 188 183 182 177 177 170 167 171 178 173 167 159 152 150 147 151 158 167 159 155 151 149 147 142 138 131 131 141 152 144 138 130 125 126 121 117 122 114 108 105 107 108 111 117 118 114 119 113 119 124 116 112 115
144 194 200 120 227 226 292 90 267 184 263 273 296 262 265 194 253 88 260 203 240 241 242 251 258 243 241 248 241 218 219 211 203 202 199 198 197 196 196 195 190 186 183 184 181 172 171 177 180 177 175 178 176 173 166 162 154 160 169 166 164 159 157 148 148 146 147 152 151 151 153 145 134 144 138 136 136 133 129 128 127 119 115 114 113 120 126 127 128 124 125 122 128 131 122 118 122
45 60 107 89 100 162 131 197 173 122 258 50 288 43 268 177 220 173 226 205 217 225 236 232 235 240 238 243 227 209 210 215 209 205 202 195 194 196 196 194 190 185 181 179 174 172 175 177 177 181 179 173 167 165 161 154 158 155 154 146 155 162 153 153 154 155 159 162 158 154 148 150 152 143 139 138 142 139 140 137 134 126 125 126 132 139 143 136 137 128 134 129 136 132 120 121 124
87 127 221 137 8 249 111 24 135 175 178 186 253 303 263 245 195 171 206 205 211 206 210 224 230 226 229 235 237 213 214 214 211 204 196 192 191 191 196 200 198 187 181 175 176 177 177 175 181 181 175 165 163 166 163 172 164 161 156 164 165 161 159 153 148 161 160 157 157 150 149 140 136 150 148 148 148 146 147 141 136 135 135 141 144 148 149 144 137 131 128 125 134 135 126 125 128
184 183 193 184 144 151 148 250 44 115 128 235 143 253 276 257 208 184 197 220 187 222 205 205 248 252 220 212 213 205 215 219 209 200 191 188 184 187 189 191 190 183 183 182 180 173 176 183 184 178 177 176 170 171 176 167 172 169 166 163 168 163 158 155 155 158 162 159 158 156 146 145 154 149 155 153 148 147 144 141 137 140 141 143 147 148 150 152 145 138 135 140 142 143 136 133 135